TimeCDT,TemperatureF,Dew PointF,Humidity,Sea Level PressureIn,VisibilityMPH,Wind Direction,Wind SpeedMPH,Gust SpeedMPH,PrecipitationIn,Events,Conditions,WindDirDegrees,DateUTC
12:53 AM,41.0,33.1,73,30.06,8.0,SE,9.2,-,N/A,,Overcast,140,2013-03-30 05:53:00
1:53 AM,41.0,33.1,73,30.02,9.0,SE,9.2,-,N/A,,Overcast,140,2013-03-30 06:53:00
2:53 AM,42.1,32.0,67,29.99,9.0,SSE,10.4,-,N/A,,Mostly Cloudy,150,2013-03-30 07:53:00
3:53 AM,41.0,32.0,70,29.95,7.0,SE,11.5,-,0.00,Rain,Light Rain,130,2013-03-30 08:53:00
4:15 AM,41.0,33.8,76,29.92,9.0,SSE,6.9,18.4,0.00,Rain-Thunderstorm,Light Rain,150,2013-03-30 09:15:00
4:48 AM,39.2,35.6,87,29.97,2.0,Calm,Calm,-,0.08,Rain-Thunderstorm,Thunderstorms and Rain,0,2013-03-30 09:48:00
4:53 AM,37.9,35.1,89,29.99,2.0,Calm,Calm,-,0.10,Rain-Thunderstorm,Thunderstorms and Rain,0,2013-03-30 09:53:00
5:05 AM,37.4,35.6,93,29.94,1.8,SE,5.8,-,0.05,Rain,Rain,130,2013-03-30 10:05:00
5:16 AM,37.4,37.4,100,29.93,2.0,SE,6.9,-,0.11,Rain,Heavy Rain,140,2013-03-30 10:16:00
5:40 AM,37.4,35.6,93,29.91,4.0,SSE,8.1,-,0.15,Rain,Light Rain,150,2013-03-30 10:40:00
5:53 AM,37.9,36.0,93,29.93,4.0,South,8.1,-,0.15,Rain,Light Rain,170,2013-03-30 10:53:00
6:53 AM,39.0,37.0,93,29.90,5.0,South,8.1,-,0.03,,Overcast,180,2013-03-30 11:53:00
7:53 AM,39.0,36.0,89,29.90,4.0,South,5.8,-,0.00,Rain,Light Rain,170,2013-03-30 12:53:00
8:09 AM,39.2,37.4,93,29.88,2.5,South,5.8,-,0.02,Rain,Light Rain,190,2013-03-30 13:09:00
8:13 AM,39.2,37.4,93,29.88,3.0,SSW,3.5,-,0.02,Rain,Light Rain,200,2013-03-30 13:13:00
8:28 AM,39.2,37.4,93,29.87,2.5,South,5.8,-,0.04,Rain,Light Rain,180,2013-03-30 13:28:00
8:53 AM,39.0,37.0,93,29.89,2.5,SSW,6.9,-,0.08,Rain,Light Rain,200,2013-03-30 13:53:00
9:01 AM,39.2,37.4,93,29.86,4.0,South,8.1,-,0.00,Rain,Light Rain,190,2013-03-30 14:01:00
9:53 AM,39.9,37.0,89,29.88,5.0,SW,5.8,-,0.00,,Overcast,220,2013-03-30 14:53:00
10:30 AM,41.0,39.2,93,29.87,6.0,WSW,5.8,-,N/A,,Overcast,240,2013-03-30 15:30:00
10:53 AM,44.1,39.9,85,29.89,6.0,West,6.9,-,N/A,,Mostly Cloudy,260,2013-03-30 15:53:00
11:04 AM,44.6,39.2,81,29.87,6.0,West,6.9,-,N/A,,Scattered Clouds,270,2013-03-30 16:04:00
11:21 AM,44.6,39.2,81,29.87,6.0,WNW,8.1,-,N/A,,Haze,300,2013-03-30 16:21:00
11:53 AM,44.1,39.0,82,29.89,6.0,WNW,9.2,-,N/A,,Haze,300,2013-03-30 16:53:00
12:53 PM,46.9,41.0,80,29.88,6.0,WNW,9.2,-,N/A,,Haze,290,2013-03-30 17:53:00
1:53 PM,48.9,41.0,74,29.87,7.0,WNW,10.4,-,N/A,,Partly Cloudy,290,2013-03-30 18:53:00
2:53 PM,51.1,41.0,68,29.86,8.0,WNW,10.4,-,N/A,,Scattered Clouds,290,2013-03-30 19:53:00
3:53 PM,51.1,39.9,66,29.86,10.0,WNW,10.4,-,N/A,,Clear,300,2013-03-30 20:53:00
4:53 PM,51.1,39.9,66,29.86,9.0,West,9.2,-,N/A,,Clear,280,2013-03-30 21:53:00
5:53 PM,48.9,39.0,69,29.86,8.0,West,8.1,-,N/A,,Clear,280,2013-03-30 22:53:00
6:53 PM,45.0,36.0,71,29.86,8.0,West,6.9,-,N/A,,Clear,280,2013-03-30 23:53:00
7:53 PM,42.1,34.0,73,29.86,7.0,West,8.1,-,N/A,,Clear,280,2013-03-31 00:53:00
8:53 PM,39.0,33.1,79,29.88,7.0,West,8.1,-,N/A,,Clear,270,2013-03-31 01:53:00
9:53 PM,37.9,32.0,79,29.88,7.0,West,8.1,-,N/A,,Clear,280,2013-03-31 02:53:00
10:53 PM,36.0,30.9,82,29.87,6.0,West,8.1,-,N/A,,Haze,280,2013-03-31 03:53:00
11:53 PM,35.1,30.0,82,29.86,6.0,WNW,9.2,-,N/A,,Haze,290,2013-03-31 04:53:00